Date String (YYYY-MM-DD hh:mm:ss) UTC,Instrument flags,absolute air pressure of the measurement (hPa),sample flow rate (lpm),inlet stack bypass flow (lpm),air temperature of the measurement (°C),ambient temperature measured by the external sensor (°C),aerosol sample conditioner tube jacket temperature (°C),OPC LED temperature (°C),internal box temperature (°C),relative humidity of the measurement (%),span deviation,mass concentration of particles derived from Lorenz-Mie calculation of OPC scattering (μg/m³),mass concentration of particles derived from Lorenz-Mie calculation of OPC scattering (μg/m³),mass concentration of particles derived from Lorenz-Mie calculation of OPC scattering (μg/m³)
DateTimeUTC,F1_M11,P_M11,Q1_M11,Q2_M11,T1_M11,T2_M11,T3_M11,T4_M11,T5_M11,U1_M11,ZSPAN_M11,X0_M11,X2_M11,X1_M11
2024-02-20 21:00:00,SystemResetWarning,0827.3,5.00,000.00,025.3,025.0,000.0,033.4,027.3,11.1,0000.0,0002.34,0000.96,0000.81
2024-02-20 21:01:00,SystemResetWarning,0827.4,5.01,000.00,025.4,025.0,000.0,033.4,027.3,10.5,0000.0,0002.43,0000.98,0000.82
2024-02-20 21:02:00,SystemResetWarning,0827.4,5.00,000.00,025.4,025.1,000.0,033.5,027.3,10.5,0000.0,0002.48,0000.98,0000.81
2024-02-20 21:03:00,SystemResetWarning,0827.3,5.00,000.00,025.5,025.1,000.0,033.5,027.4,10.3,0000.0,0002.52,0000.99,0000.81
2024-02-20 21:04:00,SystemResetWarning,0827.4,4.99,000.00,025.5,025.2,000.0,033.5,027.4,10.5,0000.0,0002.53,0000.98,0000.80
2024-02-20 21:05:00,SystemResetWarning,0827.4,4.99,000.00,025.5,025.0,000.0,033.6,027.3,10.5,0000.0,0002.49,0000.96,0000.79
2024-02-20 21:06:00,SystemResetWarning,0827.2,5.01,000.00,025.3,022.9,000.0,033.7,026.2,10.6,0000.0,0002.40,0000.93,0000.79
2024-02-20 21:07:00,SystemResetWarning,0827.2,5.01,000.00,024.8,021.3,000.0,033.7,025.3,10.8,0000.0,0001.58,0000.95,0000.80
2024-02-20 21:08:00,SystemResetWarning,0827.2,5.01,000.00,024.6,021.6,000.0,033.6,025.3,10.8,0000.0,0001.39,0000.95,0000.79
2024-02-20 21:09:00,SystemResetWarning,0827.2,5.00,000.00,024.5,022.0,000.0,033.4,025.5,11.0,0000.0,0001.46,0000.95,0000.77
2024-02-20 21:10:00,SystemResetWarning,0827.2,5.00,000.00,024.5,022.4,000.0,033.3,025.8,10.9,0000.0,0001.52,0000.97,0000.77
2024-02-20 21:11:00,SystemResetWarning,0827.1,5.00,000.00,024.6,022.8,000.0,033.2,026.1,11.3,0000.0,0001.50,0000.96,0000.76
2024-02-20 21:12:00,SystemResetWarning,0827.2,5.00,000.00,024.6,023.2,000.0,033.1,026.2,10.8,0000.0,0001.42,0000.94,0000.76
2024-02-20 21:13:00,SystemResetWarning,0827.2,5.01,000.00,024.6,023.5,000.0,033.1,026.3,10.5,0000.0,0001.37,0000.94,0000.76
2024-02-20 21:14:00,SystemResetWarning,0827.2,4.99,000.00,024.7,023.7,000.0,033.1,026.5,10.5,0000.0,0001.34,0000.92,0000.76
2024-02-20 21:15:00,SystemResetWarning,0827.2,5.00,000.00,024.7,023.9,000.0,033.1,026.5,10.6,0000.0,0001.33,0000.91,0000.76
2024-02-20 21:16:00,SystemResetWarning,0827.2,5.00,000.00,024.8,024.1,000.0,033.0,026.6,10.5,0000.0,0001.31,0000.91,0000.76
2024-02-20 21:17:00,SystemResetWarning,0827.3,5.00,000.00,024.8,024.3,000.0,033.1,026.7,10.7,0000.0,0001.35,0000.91,0000.75
2024-02-20 21:18:00,SystemResetWarning,0827.3,5.01,000.00,024.9,024.4,000.0,033.1,026.8,10.4,0000.0,0001.41,0000.89,0000.75
2024-02-20 21:19:00,SystemResetWarning,0827.4,5.01,000.00,025.0,024.5,000.0,033.1,026.8,10.6,0000.0,0001.49,0000.92,0000.76
2024-02-20 21:20:00,SystemResetWarning,0827.4,5.00,000.00,025.0,024.6,000.0,033.1,026.9,10.7,0000.0,0001.52,0000.92,0000.76
2024-02-20 21:21:00,SystemResetWarning,0827.4,5.00,000.00,025.1,024.7,000.0,033.1,027.0,10.7,0000.0,0001.48,0000.90,0000.76
2024-02-20 21:22:00,SystemResetWarning,0827.4,5.00,000.00,025.1,024.8,000.0,033.2,027.0,10.7,0000.0,0001.46,0000.90,0000.76
2024-02-20 21:23:00,SystemResetWarning,0827.4,4.99,000.00,025.2,024.9,000.0,033.2,027.1,10.7,0000.0,0001.51,0000.92,0000.76
2024-02-20 21:24:00,SystemResetWarning,0827.4,5.01,000.00,025.2,024.9,000.0,033.3,027.2,10.9,0000.0,0001.48,0000.91,0000.77
2024-02-20 21:25:00,SystemResetWarning,0827.4,5.02,000.00,025.3,025.0,000.0,033.3,027.2,10.7,0000.0,0001.54,0000.94,0000.78
2024-02-20 21:26:00,SystemResetWarning,0827.4,5.01,000.00,025.3,025.1,000.0,033.3,027.3,10.7,0000.0,0001.54,0000.95,0000.79
2024-02-20 21:27:00,SystemResetWarning,0827.4,5.00,000.00,025.4,025.1,000.0,033.4,027.3,11.0,0000.0,0001.58,0000.98,0000.80
2024-02-20 21:28:00,SystemResetWarning,0827.4,4.99,000.00,025.4,025.1,000.0,033.4,027.4,10.9,0000.0,0001.55,0000.98,0000.80
2024-02-20 21:29:00,SystemResetWarning,0827.4,4.99,000.00,025.4,024.0,000.0,033.5,026.8,11.2,0000.0,0001.43,0000.97,0000.80
2024-02-20 21:30:00,SystemResetWarning,0827.3,5.02,000.00,025.0,022.4,000.0,033.6,026.0,11.1,0000.0,0001.34,0000.95,0000.79
2024-02-20 21:31:00,SystemResetWarning,0827.3,5.01,000.00,024.8,022.5,000.0,033.5,025.9,11.1,0000.0,0001.28,0000.94,0000.80
2024-02-20 21:32:00,SystemResetWarning,0827.4,4.99,000.00,024.8,022.8,000.0,033.4,026.1,11.4,0000.0,0001.41,0000.95,0000.81
2024-02-20 21:33:00,SystemResetWarning,0827.4,4.99,000.00,024.8,023.1,000.0,033.3,026.2,11.7,0000.0,0002.58,0000.94,0000.80
2024-02-20 21:34:00,SystemResetWarning,0827.4,5.00,000.00,024.8,023.4,000.0,033.3,026.4,11.9,0000.0,0002.53,0000.92,0000.80
2024-02-20 21:35:00,SystemResetWarning,0827.4,5.01,000.00,024.9,023.7,000.0,033.2,026.6,11.7,0000.0,0002.53,0000.91,0000.80
2024-02-20 21:36:00,SystemResetWarning,0827.4,5.00,000.00,024.9,023.9,000.0,033.2,026.7,12.0,0000.0,0002.42,0000.88,0000.78
2024-02-20 21:37:00,SystemResetWarning,0827.4,4.99,000.00,025.0,024.1,000.0,033.2,026.7,11.9,0000.0,0002.46,0000.88,0000.78
2024-02-20 21:38:00,SystemResetWarning,0827.5,5.00,000.00,025.0,024.3,000.0,033.2,026.8,11.8,0000.0,0002.49,0000.86,0000.78
2024-02-20 21:39:00,SystemResetWarning,0827.5,5.00,000.00,025.0,024.4,000.0,033.2,026.9,11.7,0000.0,0002.51,0000.87,0000.78
2024-02-20 21:40:00,SystemResetWarning,0827.5,5.00,000.00,025.1,024.5,000.0,033.2,026.9,11.8,0000.0,0002.56,0000.89,0000.78
2024-02-20 21:41:00,SystemResetWarning,0827.5,5.01,000.00,025.1,024.6,000.0,033.3,027.0,10.9,0000.0,0002.57,0000.90,0000.79
2024-02-20 21:42:00,SystemResetWarning,0827.7,5.00,000.00,025.2,024.7,000.0,033.3,027.1,11.3,0000.0,0002.56,0000.89,0000.78
2024-02-20 21:43:00,SystemResetWarning,0827.5,5.01,000.00,025.2,024.8,000.0,033.3,027.1,11.1,0000.0,0002.48,0000.91,0000.78
2024-02-20 21:44:00,SystemResetWarning,0827.4,5.00,000.00,025.3,024.9,000.0,033.3,027.2,11.0,0000.0,0001.30,0000.92,0000.78
2024-02-20 21:45:00,SystemResetWarning,0827.5,4.99,000.00,025.3,024.9,000.0,033.4,027.2,10.8,0000.0,0001.41,0000.94,0000.79
2024-02-20 21:46:00,SystemResetWarning,0827.5,4.99,000.00,025.4,025.0,000.0,033.4,027.2,10.7,0000.0,0001.73,0000.97,0000.79
2024-02-20 21:47:00,SystemResetWarning,0827.4,5.00,000.00,025.4,024.9,000.0,033.4,027.2,10.7,0000.0,0001.78,0001.00,0000.79
2024-02-20 21:48:00,SystemResetWarning,0827.4,5.00,000.00,025.2,023.2,000.0,033.5,026.3,10.9,0000.0,0001.74,0000.99,0000.78
2024-02-20 21:49:00,SystemResetWarning,0827.4,5.01,000.00,024.9,022.2,000.0,033.6,025.7,11.1,0000.0,0001.71,0001.00,0000.78
2024-02-20 21:50:00,SystemResetWarning,0827.5,5.01,000.00,024.7,022.5,000.0,033.5,025.8,11.1,0000.0,0001.74,0001.01,0000.77
2024-02-20 21:51:00,SystemResetWarning,0827.5,5.00,000.00,024.7,022.8,000.0,033.3,026.1,10.6,0000.0,0001.70,0000.99,0000.77
2024-02-20 21:52:00,SystemResetWarning,0827.4,5.00,000.00,024.7,023.1,000.0,033.3,026.3,10.6,0000.0,0001.81,0000.99,0000.76
2024-02-20 21:53:00,SystemResetWarning,0827.4,5.00,000.00,024.8,023.4,000.0,033.2,026.4,10.7,0000.0,0002.34,0001.02,0000.75
2024-02-20 21:54:00,SystemResetWarning,0827.4,4.99,000.00,024.8,023.6,000.0,033.2,026.5,10.8,0000.0,0003.08,0001.03,0000.75
2024-02-20 21:55:00,SystemResetWarning,0827.5,5.00,000.00,024.8,023.9,000.0,033.2,026.6,10.9,0000.0,0003.08,0001.02,0000.75
2024-02-20 21:56:00,SystemResetWarning,0827.6,5.01,000.00,024.9,024.1,000.0,033.2,026.7,11.0,0000.0,0003.07,0001.01,0000.74
2024-02-20 21:57:00,SystemResetWarning,0827.7,5.00,000.00,024.9,024.2,000.0,033.2,026.7,10.9,0000.0,0002.82,0000.99,0000.74
2024-02-20 21:58:00,SystemResetWarning,0827.7,4.99,000.00,025.0,024.3,000.0,033.2,026.8,10.8,0000.0,0002.88,0001.01,0000.74
2024-02-20 21:59:00,SystemResetWarning,0827.7,4.99,000.00,025.0,024.5,000.0,033.2,026.9,11.2,0000.0,0002.98,0001.05,0000.75
